Weather History for Sioux Falls, SD

Change the Weather History Date:

Friday, March 21, 2014

  Actual Average Record
Temperature  
Mean Temperature 33 °F 35 °F  
Max Temperature 45 °F 45 °F 83 °F (1910)
Min Temperature 20 °F 25 °F -11 °F (1951)
Degree Days  
Heating Degree Days 32 30  
Month to date heating degree days 780 719  
Since 1 July heating degree days 7127 6569  
Cooling Degree Days 0 0  
Month to date cooling degree days 0 0  
Year to date cooling degree days 0 0  
Moisture  
Dew Point 27 °F    
Average Humidity 78    
Maximum Humidity 92    
Minimum Humidity 64    
Precipitation  
Precipitation 0.00 in 0.06 in 1.04 in (1993)
Month to date precipitation 0.52 0.98  
Year to date precipitation 1.51 2.14  
Snow  
Snow 0.00 in 0.30 in 11.70 in (1993)
Month to date snowfall 5.8 6.1  
Since 1 July snowfall 40.0 37.6  
Snow Depth 0.00 in    
Sea Level Pressure  
Sea Level Pressure 29.99 in    
Wind  
Wind Speed 17 mph (NW)    
Max Wind Speed 29 mph    
Max Gust Speed 36 mph    
Visibility 10 miles    
Events      
T = Trace of Precipitation, MM = Missing Value Source: NWS Daily Summary

Daily Weather History Graph

Daily Weather History Graph

Search for Another Location

Airport:

Trip Planner

Search our weather history database for the weather conditions in past years. The results will help you decide how hot, cold, wet, or windy it might be!

Date:

Astronomy

Mar. 21, 2014 Rise Set
Actual Time 7:28 AM CDT 7:40 PM CDT
Civil Twilight 6:59 AM CDT 8:09 PM CDT
Nautical Twilight 6:26 AM CDT 8:42 PM CDT
Astronomical Twilight 5:51 AM CDT 9:17 PM CDT
Moon 12:08 AM CDT (3/21) 10:12 AM CDT (3/21)
Length of Visible Light 13h 09m
Length of Day
12h 12m
Waning Gibbous, 75% of the Moon is Illuminated
Mar 21
Waning Gibbous
Mar 23
Last Quarter
Mar 30
New
Apr 7
First Quarter
Apr 15
Full

Hourly Weather History & Observations

Time (CDT) Temp. Windchill Dew Point Humidity Pressure Visibility Wind Dir Wind Speed Gust Speed Precip Events Conditions
12:56 AM 39.9 °F 30.8 °F 30.0 °F 68% 29.75 in 10.0 mi SSE 18.4 mph 27.6 mph N/A   Clear
1:56 AM 37.9 °F 28.9 °F 28.9 °F 70% 29.74 in 10.0 mi SSE 16.1 mph - N/A   Clear
2:56 AM 37.0 °F 28.1 °F 28.9 °F 73% 29.73 in 10.0 mi South 15.0 mph - N/A   Clear
3:56 AM 36.0 °F 28.5 °F 28.0 °F 73% 29.75 in 10.0 mi South 10.4 mph - N/A   Clear
4:56 AM 35.1 °F 29.3 °F 28.0 °F 76% 29.76 in 10.0 mi West 6.9 mph - N/A   Partly Cloudy
5:56 AM 28.9 °F - 26.1 °F 89% 29.76 in 10.0 mi Calm Calm - N/A   Partly Cloudy
6:56 AM 30.9 °F 25.2 °F 28.0 °F 89% 29.80 in 10.0 mi West 5.8 mph - N/A   Partly Cloudy
7:56 AM 34.0 °F 27.2 °F 30.9 °F 89% 29.82 in 10.0 mi West 8.1 mph - N/A   Clear
8:56 AM 37.9 °F 29.6 °F 30.9 °F 76% 29.84 in 10.0 mi WNW 13.8 mph 23.0 mph N/A   Clear
9:56 AM 39.9 °F 29.7 °F 32.0 °F 73% 29.86 in 10.0 mi NW 23.0 mph 33.4 mph N/A   Partly Cloudy
10:56 AM 44.1 °F 35.7 °F 33.1 °F 65% 29.87 in 10.0 mi NW 20.7 mph 28.8 mph N/A   Partly Cloudy
11:30 AM 44.1 °F 35.0 °F 34.0 °F 68% 29.87 in 10.0 mi NW 24.2 mph - N/A   Mostly Cloudy
11:56 AM 43.0 °F 34.0 °F 34.0 °F 71% 29.91 in 10.0 mi NW 21.9 mph 31.1 mph N/A   Overcast
12:56 PM 43.0 °F 33.8 °F 33.1 °F 68% 29.95 in 10.0 mi NNW 23.0 mph 29.9 mph N/A   Overcast
1:21 PM 44.1 °F 35.2 °F 33.1 °F 65% 29.93 in 10.0 mi NNW 23.0 mph 31.1 mph N/A   Overcast
1:40 PM 39.9 °F 30.2 °F 32.0 °F 73% 29.94 in 10.0 mi NNW 20.7 mph 28.8 mph N/A   Overcast
1:56 PM 39.9 °F 30.8 °F 30.9 °F 70% 29.99 in 10.0 mi NNW 18.4 mph 31.1 mph N/A   Overcast
2:56 PM 37.9 °F 27.6 °F 28.9 °F 70% 30.03 in 10.0 mi North 20.7 mph 28.8 mph N/A   Overcast
3:56 PM 37.9 °F 26.8 °F 27.0 °F 65% 30.06 in 10.0 mi NNW 24.2 mph 32.2 mph N/A   Overcast
4:32 PM 39.0 °F 29.3 °F 25.0 °F 57% 30.03 in 10.0 mi North 19.6 mph 32.2 mph N/A   Overcast
4:56 PM 37.9 °F 27.3 °F 26.1 °F 62% 30.09 in 10.0 mi North 21.9 mph 33.4 mph N/A   Overcast
5:32 PM 35.1 °F 22.7 °F 25.0 °F 67% 30.08 in 10.0 mi NNW 25.3 mph 32.2 mph N/A   Mostly Cloudy
5:56 PM 35.1 °F 22.7 °F 24.1 °F 64% 30.15 in 10.0 mi NNW 25.3 mph 34.5 mph N/A   Mostly Cloudy
6:28 PM 33.1 °F 20.1 °F 21.9 °F 64% 30.12 in 10.0 mi NNW 25.3 mph 32.2 mph N/A   Scattered Clouds
6:56 PM 30.9 °F 18.7 °F 21.9 °F 69% 30.19 in 10.0 mi NNW 19.6 mph 28.8 mph N/A   Scattered Clouds
6:58 PM 32.0 °F 20.8 °F 21.9 °F 66% 30.14 in 10.0 mi NNW 17.3 mph 28.8 mph N/A   Mostly Cloudy
7:56 PM 28.9 °F 14.8 °F 21.0 °F 72% 30.22 in 10.0 mi North 24.2 mph 34.5 mph N/A   Overcast
8:56 PM 27.0 °F 12.2 °F 19.9 °F 75% 30.26 in 10.0 mi NNW 24.2 mph 28.8 mph N/A   Overcast
9:38 PM 26.1 °F 12.0 °F 18.0 °F 71% 30.23 in 10.0 mi NNW 20.7 mph 27.6 mph N/A   Scattered Clouds
9:56 PM 26.1 °F 13.6 °F 18.0 °F 71% 30.29 in 10.0 mi NNW 16.1 mph - N/A   Partly Cloudy
10:56 PM 24.1 °F 9.8 °F 16.0 °F 71% 30.32 in 10.0 mi NNW 19.6 mph 27.6 mph N/A   Partly Cloudy
11:56 PM 21.9 °F 6.9 °F 14.0 °F 72% 30.33 in 10.0 mi NNW 19.6 mph - N/A   Partly Cloudy